Location: Newark
(54.9353°N, 24.1167°E)
Time: 09:24:05
(UTC+00:00)

Envisat - Pass Details

Date: 02 October 2020
Orbit: 764 x 766 km, 98.1° (Epoch: 23 October)

Event Time Altitude Azimuth Distance (km) Brightness Sun altitude
Rises 17:07:52 0° 220° (SW) 3,226 6.7 -11.1°
Reaches altitude 10° 17:11:20 10° 245° (WSW) 2,306 6.4 -11.6°
Maximum altitude 17:13:58 14° 277° (W) 2,037 6.6 -12.0°
Drops below altitude 10° 17:16:37 10° 308° (NW) 2,314 6.5 -12.4°
Sets 17:20:08 0° 333° (NNW) 3,247 6.8 -12.9°
